Terug naar catalogus

FENGYUN 1C DEB

ActiefPO
NORAD 36647·DEBRIS·🇨🇳 China

Gelanceerd May 10, 1999 vanaf Taiyuan Satellite Launch Center

Loading…

Volgende Passages (komende 24 uur)

TLE

VersSource: Space-Track

Epoch: Sep 11, 2026, 09:58 UTC

1 36647U 99025DXR 26254.41541391  .00002318  00000-0  14956-2 0  9999
2 36647  96.1252 307.4463 0235530 223.0697 135.1829 13.90802813342000

Volg FENGYUN 1C DEB in realtime met AllMySat

Download on the App Store